Regional Weather Roundup
Issued by NWS

Home | Current Version | Previous Version | Graphics & Text | Print | Product List | Glossary On
Versions: 1 2 3 4 5 6 7 8 9 10 11 12 13 14 15 16 17 18 19 20 21 22 23 24 25 26 27 28 29 30 31 32 33 34 35 36 37 38 39 40 41 42 43 44 45 46 47 48 49 50
000
ASUS43 KDTX 210610
RWRMI
MICHIGAN HOURLY REGIONAL WEATHER ROUNDUP
NATIONAL WEATHER SERVICE DETROIT/PONTIAC MI
200 AM EDT FRI JUL 21 2017

NOTE: "FAIR" INDICATES FEW OR NO CLOUDS BELOW 12,000 FEET WITH NO
SIGNIFICANT WEATHER AND/OR OBSTRUCTION TO VISIBILITY.

MIZ047>049-052>055-059>063-066>070-074>076-081>083-210700-
SOUTHEAST LOWER MICHIGAN

CITY           SKY/WX    TMP DP  RH WIND       PRES   REMARKS
ADRIAN         CLEAR     71  67  87 CALM      29.97S
6HR MIN TEMP:  70; 6HR MAX TEMP:  82;

ALMA           CLEAR     69  66  92 CALM      29.97F
ANN ARBOR      FOG       69  69 100 CALM      29.96S VSB 1/4
BAD AXE        CLEAR     67  66  96 CALM      29.95S
6HR MIN TEMP:  67; 6HR MAX TEMP:  83;

CARO           CLEAR     68  66  93 CALM      29.95S
DETROIT CITY   CLEAR     78  71  79 W3        29.95R
6HR MIN TEMP:  78; 6HR MAX TEMP:  85;

DETROIT        PTCLDY    76  72  87 W5        29.95S
6HR MIN TEMP:  76; 6HR MAX TEMP:  84;

FLINT          CLEAR     68  67  96 CALM      29.96S
6HR MIN TEMP:  67; 6HR MAX TEMP:  82;

GROSSE ILE     CLEAR     75  71  85 W3        29.94S
6HR MIN TEMP:  75; 6HR MAX TEMP:  80;

HILLSDALE      CLEAR     68  68 100 CALM      29.98S FOG
HOWELL         CLEAR     69  67  94 W3        29.98R
6HR MIN TEMP:  69; 6HR MAX TEMP:  82;


CITY           SKY/WX    TMP DP  RH WIND       PRES   REMARKS
JACKSON        LGT RAIN  70  68  93 CALM      29.98S
6HR MIN TEMP:  68; 6HR MAX TEMP:  83; 6HR PCP: TRACE;

LAMBERTVILLE   MOCLDY    72  70  94 CALM      29.95S
6HR MIN TEMP:  71; 6HR MAX TEMP:  83;

LANSING        CLEAR     72  67  84 NW7       29.97F
6HR MIN TEMP:  71; 6HR MAX TEMP:  83;

LAPEER         FAIR      67  66  95 CALM      29.96S
6HR MIN TEMP:  67; 6HR MAX TEMP:  82;

MASON          CLEAR     66  65  99 CALM      29.98R FOG
MONROE         PTCLDY    71  71  98 CALM      29.94S
6HR MIN TEMP:  70; 6HR MAX TEMP:  83;

MT. CLEMENS    CLEAR     72  69  91 CALM      29.93R
6HR MIN TEMP:  71; 6HR MAX TEMP:  84;

PONTIAC        CLEAR     73  71  93 CALM      29.95S
6HR MIN TEMP:  73; 6HR MAX TEMP:  82;

PORT HOPE        N/A     70  67  90 W5        29.93R
6HR MIN TEMP:  70; 6HR MAX TEMP:  78;

PORT HURON     CLEAR     68  64  88 CALM      29.94S FOG
TRI CITIES     MOCLDY    72  70  93 W5        29.96R
6HR MIN TEMP:  72; 6HR MAX TEMP:  84;

MIDLAND        FAIR      67  67  99 CALM      29.95S
TROY           CLEAR     77  70  78 CALM      29.97S
SAGINAW HB     CLEAR     72  68  88 W6        29.95S
$$
MIZ043>046-050>051-056>058-064>065-071>073-077>080-210700-
SOUTHWEST LOWER MICHIGAN

CITY           SKY/WX    TMP DP  RH WIND       PRES   REMARKS
BATTLE CREEK   CLEAR     69  69 100 CALM      29.99S
6HR MIN TEMP:  69; 6HR MAX TEMP:  83;

BENTON HARBOR  CLEAR     66  63  90 E3        29.96F
6HR MIN TEMP:  65; 6HR MAX TEMP:  80;

BIG RAPIDS     CLEAR     64  62  93 CALM      29.98S
6HR MIN TEMP:  64; 6HR MAX TEMP:  81;

COLDWATER      CLEAR     69  69 100 CALM      29.98S FOG
6HR MIN TEMP:  67; 6HR MAX TEMP:  82;

FREMONT        FOG       65  65 100 CALM      29.97F VSB 1/2
HOLLAND        FOG       63  62  97 CALM      29.98S VSB 1
6HR MIN TEMP:  65; 6HR MAX TEMP:  76;

GRAND RAPIDS   CLEAR     71  68  90 NW5       29.97F
6HR MIN TEMP:  71; 6HR MAX TEMP:  82;

IONIA          FAIR      71  68  90 N5        29.97S
6HR MIN TEMP:  71; 6HR MAX TEMP:  82;

KALAMAZOO      CLEAR     69  65  86 NW3       29.98F
6HR MIN TEMP:  69; 6HR MAX TEMP:  83;

LUDINGTON      PTCLDY    63  63 100 CALM      29.95S FOG
6HR MIN TEMP:  63; 6HR MAX TEMP:  73;

MARSHALL       FOG       68  68  99 CALM      29.97F VSB 1/2
6HR MIN TEMP:  67; 6HR MAX TEMP:  82;

MOUNT PLEASANT CLEAR     70  66  89 CALM      29.97S
6HR MIN TEMP:  69; 6HR MAX TEMP:  86;

MUSKEGON       CLEAR     65  64  97 CALM      29.97F FOG
6HR MIN TEMP:  65; 6HR MAX TEMP:  77;

SOUTH HAVEN    CLEAR     65  64  99 CALM      29.98S
$$
MIZ016>042-210700-
NORTHERN LOWER MICHIGAN

CITY           SKY/WX    TMP DP  RH WIND       PRES   REMARKS
ALPENA         CLEAR     62  61  96 CALM      29.96S
6HR MIN TEMP:  61; 6HR MAX TEMP:  75;

BEAVER ISLAND  FOG       61  61  99 CALM      29.96F VSB 1/2
6HR MIN TEMP:  60; 6HR MAX TEMP:  74;

BELLAIRE       CLEAR     61  59  95 CALM      29.97S
6HR MIN TEMP:  60; 6HR MAX TEMP:  78;

CADILLAC       CLEAR     62  58  90 CALM      29.98F
CHARLEVOIX     CLEAR     65  65 100 CALM      29.99S
FRANKFORT      CLEAR     66  65  99 CALM      29.95F
GAYLORD        CLEAR     67  61  81 CALM      29.98F
6HR MIN TEMP:  64; 6HR MAX TEMP:  79;

GRAYLING       FOG       57  55  94 CALM      29.99S VSB 1/2
6HR MIN TEMP:  57; 6HR MAX TEMP:  78;

HARBOR SPRINGS CLEAR     64  64 100 CALM      29.96S
HOUGHTON LAKE  CLEAR     59  57  93 CALM      29.98S
6HR MIN TEMP:  59; 6HR MAX TEMP:  81;

MANISTEE       CLEAR     62  62 100 E3        29.95F
OSCODA         CLEAR     65  63  91 NW6       29.94R
6HR MIN TEMP:  65; 6HR MAX TEMP:  80;

PELLSTON       CLEAR     61  61 100 CALM      29.96S FOG
6HR MIN TEMP:  61; 6HR MAX TEMP:  79;

ROGERS CITY    PTCLDY    64  62  91 CALM      29.96F
TRAVERSE CITY  CLEAR     67  64  90 CALM      29.94S
6HR MIN TEMP:  65; 6HR MAX TEMP:  81;

$$
MIZ007>008-015-210700-
EASTERN UPPER MICHIGAN

CITY           SKY/WX    TMP DP  RH WIND       PRES   REMARKS
KINROSS        CLEAR     57  56  96 W5        29.96R
6HR MIN TEMP:  57; 6HR MAX TEMP:  71;

MACKINAC ISLAN CLEAR     64  61  91 N7        29.96S
6HR MIN TEMP:  64; 6HR MAX TEMP:  71;

NEWBERRY       CLEAR     56  55  97 CALM      29.95F
6HR MIN TEMP:  55; 6HR MAX TEMP:  73; 6HR PCP:  0.04;

S. S. MARIE    CLEAR     59  57  93 W5        29.95R
6HR MIN TEMP:  59; 6HR MAX TEMP:  71;

MUNISING         N/A     60  60 100 S9        29.95S
6HR MIN TEMP:  60; 6HR MAX TEMP:  72;

$$
MIZ004>006-011>014-085-210700-
CENTRAL UPPER MICHIGAN

CITY           SKY/WX    TMP DP  RH WIND       PRES   REMARKS
MANISTIQUE     CLEAR     57  54  89 CALM      29.95S
6HR MIN TEMP:  57; 6HR MAX TEMP:  76;

ESCANABA       CLEAR     60  59  96 CALM      29.95S
6HR MIN TEMP:  59; 6HR MAX TEMP:  82;

MENOMINEE      CLEAR     68  64  87 N3        29.97R
6HR MIN TEMP:  67; 6HR MAX TEMP:  85;

SAWYER-GWINN   CLEAR     58  56  92 CALM      29.98S
6HR MIN TEMP:  58; 6HR MAX TEMP:  74;

$$
MIZ001>003-009>011-084-210700-
WESTERN UPPER MICHIGAN

CITY           SKY/WX    TMP DP  RH WIND       PRES   REMARKS
IRON MOUNTAIN  CLEAR     60  56  86 CALM      29.98R
6HR MIN TEMP:  59; 6HR MAX TEMP:  83;

HOUGHTON       CLEAR     61  57  87 NW7       29.95S
6HR MIN TEMP:  60; 6HR MAX TEMP:  74;

COPPER HARBOR    N/A     65  56  72 W3        29.93S
6HR MIN TEMP:  59; 6HR MAX TEMP:  68;

IRONWOOD       CLEAR     61  60  97 CALM      29.99S
6HR MIN TEMP:  61; 6HR MAX TEMP:  79;

$$

ABBREVIATIONS USED IN REMARKS
   TC - TEMPERATURE IN CELSIUS
  WCI - WIND CHILL INDEX
   HX - HEAT INDEX
  VSB - VISIBILITY





USA.gov is the U.S. government's official web portal to all federal, state and local government web resources and services.